Year,Month,Day,Hour,Minute,Value (Times are PST for temperature in C)
2016,08,19,00,00,19.10
2016,08,19,00,01,19.10
2016,08,19,00,02,19.00
2016,08,19,00,03,19.00
2016,08,19,00,04,19.00
2016,08,19,00,05,19.00
2016,08,19,00,06,19.00
2016,08,19,00,07,19.00
2016,08,19,00,08,18.90
2016,08,19,00,09,18.90
2016,08,19,00,10,18.90
2016,08,19,00,11,18.90
2016,08,19,00,12,18.90
2016,08,19,00,13,18.90
2016,08,19,00,14,18.90
2016,08,19,00,15,18.90
2016,08,19,00,16,19.00
2016,08,19,00,17,19.10
2016,08,19,00,18,19.20
2016,08,19,00,19,19.30
2016,08,19,00,20,19.40
2016,08,19,00,21,19.60
2016,08,19,00,22,19.80
2016,08,19,00,23,20.00
2016,08,19,00,24,20.20
2016,08,19,00,25,20.40
2016,08,19,00,26,20.60
2016,08,19,00,27,20.90
2016,08,19,00,28,21.20
2016,08,19,00,29,21.40
2016,08,19,00,30,21.70
2016,08,19,00,31,21.80
2016,08,19,00,32,22.00
2016,08,19,00,33,22.20
2016,08,19,00,34,22.30
2016,08,19,00,35,22.50
2016,08,19,00,36,22.60
2016,08,19,00,37,22.70
2016,08,19,00,38,22.80
2016,08,19,00,39,22.90
2016,08,19,00,40,23.00
2016,08,19,00,41,23.10
2016,08,19,00,42,23.20
2016,08,19,00,43,23.30
2016,08,19,00,44,23.40
2016,08,19,00,45,23.40
2016,08,19,00,46,23.50
2016,08,19,00,47,23.60
2016,08,19,00,48,23.70
2016,08,19,00,49,23.80
2016,08,19,00,50,23.80
2016,08,19,00,51,23.90
2016,08,19,00,52,23.90
2016,08,19,00,53,24.00
2016,08,19,00,54,24.10
2016,08,19,00,55,24.20
2016,08,19,00,56,24.30
2016,08,19,00,57,24.30
2016,08,19,00,58,24.30
2016,08,19,00,59,24.30
2016,08,19,01,00,24.40
2016,08,19,01,01,24.40
2016,08,19,01,02,24.40
2016,08,19,01,03,24.40
2016,08,19,01,04,24.40
2016,08,19,01,05,24.40
2016,08,19,01,06,24.40
2016,08,19,01,07,24.50
2016,08,19,01,08,24.50
2016,08,19,01,09,24.50
2016,08,19,01,10,24.50
2016,08,19,01,11,24.50
2016,08,19,01,12,24.60
2016,08,19,01,13,24.60
2016,08,19,01,14,24.70
2016,08,19,01,15,24.70
2016,08,19,01,16,24.80
2016,08,19,01,17,24.80
2016,08,19,01,18,24.80
2016,08,19,01,19,24.90
2016,08,19,01,20,24.90
2016,08,19,01,21,24.90
2016,08,19,01,22,24.90
2016,08,19,01,23,24.90
2016,08,19,01,24,25.00
2016,08,19,01,25,25.00
2016,08,19,01,26,25.10
2016,08,19,01,27,25.10
2016,08,19,01,28,25.10
2016,08,19,01,29,25.20
2016,08,19,01,30,25.20
2016,08,19,01,31,25.20
2016,08,19,01,32,25.20
2016,08,19,01,33,25.20
2016,08,19,01,34,25.20
2016,08,19,01,35,25.20
2016,08,19,01,36,25.20
2016,08,19,01,37,25.20
2016,08,19,01,38,25.20
2016,08,19,01,39,25.20
2016,08,19,01,40,25.20
2016,08,19,01,41,25.20
2016,08,19,01,42,25.20
2016,08,19,01,43,25.20
2016,08,19,01,44,25.20
2016,08,19,01,45,25.20
2016,08,19,01,46,25.20
2016,08,19,01,47,25.20
2016,08,19,01,48,25.20
2016,08,19,01,49,25.30
2016,08,19,01,50,25.30
2016,08,19,01,51,25.30
2016,08,19,01,52,25.30
2016,08,19,01,53,25.20
2016,08,19,01,54,25.20
2016,08,19,01,55,25.20
2016,08,19,01,56,25.10
2016,08,19,01,57,25.10
2016,08,19,01,58,25.00
2016,08,19,01,59,24.90
2016,08,19,02,00,24.80
2016,08,19,02,01,24.80
2016,08,19,02,02,24.70
2016,08,19,02,03,24.60
2016,08,19,02,04,24.50
2016,08,19,02,05,24.40
2016,08,19,02,06,24.30
2016,08,19,02,07,24.20
2016,08,19,02,08,24.10
2016,08,19,02,09,24.00
2016,08,19,02,10,24.00
2016,08,19,02,11,23.90
2016,08,19,02,12,23.90
2016,08,19,02,13,23.90
2016,08,19,02,14,23.90
2016,08,19,02,15,23.90
2016,08,19,02,16,23.90
2016,08,19,02,17,24.00
2016,08,19,02,18,24.00
2016,08,19,02,19,24.00
2016,08,19,02,20,24.00
2016,08,19,02,21,24.00
2016,08,19,02,22,24.00
2016,08,19,02,23,24.00
2016,08,19,02,24,24.00
2016,08,19,02,25,24.10
2016,08,19,02,26,24.10
2016,08,19,02,27,24.10
2016,08,19,02,28,24.10
2016,08,19,02,29,24.10
2016,08,19,02,30,24.20
2016,08,19,02,31,24.20
2016,08,19,02,32,24.20
2016,08,19,02,33,24.20
2016,08,19,02,34,24.30
2016,08,19,02,35,24.30
2016,08,19,02,36,24.30
2016,08,19,02,37,24.40
2016,08,19,02,38,24.40
2016,08,19,02,39,24.40
2016,08,19,02,40,24.50
2016,08,19,02,41,24.50
2016,08,19,02,42,24.50
2016,08,19,02,43,24.50
2016,08,19,02,44,24.60
2016,08,19,02,45,24.60
2016,08,19,02,46,24.60
2016,08,19,02,47,24.50
2016,08,19,02,48,24.50
2016,08,19,02,49,24.50
2016,08,19,02,50,24.50
2016,08,19,02,51,24.50
2016,08,19,02,52,24.50
2016,08,19,02,53,24.50
2016,08,19,02,54,24.50
2016,08,19,02,55,24.50
2016,08,19,02,56,24.40
2016,08,19,02,57,24.40
2016,08,19,02,58,24.40
2016,08,19,02,59,24.40
2016,08,19,03,00,24.30
2016,08,19,03,01,24.30
2016,08,19,03,02,24.30
2016,08,19,03,03,24.30
2016,08,19,03,04,24.30
2016,08,19,03,05,24.30
2016,08,19,03,06,24.30
2016,08,19,03,07,24.30
2016,08,19,03,08,24.30
2016,08,19,03,09,24.30
2016,08,19,03,10,24.30
2016,08,19,03,11,24.30
2016,08,19,03,12,24.30
2016,08,19,03,13,24.30
2016,08,19,03,14,24.30
2016,08,19,03,15,24.30
2016,08,19,03,16,24.20
2016,08,19,03,17,24.20
2016,08,19,03,18,24.20
2016,08,19,03,19,24.10
2016,08,19,03,20,24.10
2016,08,19,03,21,24.10
2016,08,19,03,22,24.00
2016,08,19,03,23,24.00
2016,08,19,03,24,24.00
2016,08,19,03,25,23.90
2016,08,19,03,26,23.90
2016,08,19,03,27,23.90
2016,08,19,03,28,23.80
2016,08,19,03,29,23.80
2016,08,19,03,30,23.70
2016,08,19,03,31,23.70
2016,08,19,03,32,23.60
2016,08,19,03,33,23.60
2016,08,19,03,34,23.50
2016,08,19,03,35,23.40
2016,08,19,03,36,23.40
2016,08,19,03,37,23.30
2016,08,19,03,38,23.30
2016,08,19,03,39,23.20
2016,08,19,03,40,23.20
2016,08,19,03,41,23.10
2016,08,19,03,42,23.10
2016,08,19,03,43,23.00
2016,08,19,03,44,23.00
2016,08,19,03,45,22.90
2016,08,19,03,46,22.90
2016,08,19,03,47,22.80
2016,08,19,03,48,22.80
2016,08,19,03,49,22.80
2016,08,19,03,50,22.70
2016,08,19,03,51,22.70
2016,08,19,03,52,22.70
2016,08,19,03,53,22.60
2016,08,19,03,54,22.60
2016,08,19,03,55,22.50
2016,08,19,03,56,22.50
2016,08,19,03,57,22.50
2016,08,19,03,58,22.40
2016,08,19,03,59,22.40
2016,08,19,04,00,22.40
2016,08,19,04,01,22.40
2016,08,19,04,02,22.30
2016,08,19,04,03,22.30
2016,08,19,04,04,22.30
2016,08,19,04,05,22.30
2016,08,19,04,06,22.20
2016,08,19,04,07,22.20
2016,08,19,04,08,22.10
2016,08,19,04,09,22.10
2016,08,19,04,10,22.00
2016,08,19,04,11,21.90
2016,08,19,04,12,21.90
2016,08,19,04,13,21.80
2016,08,19,04,14,21.80
2016,08,19,04,15,21.70
2016,08,19,04,16,21.70
2016,08,19,04,17,21.60
2016,08,19,04,18,21.50
2016,08,19,04,19,21.50
2016,08,19,04,20,21.40
2016,08,19,04,21,21.40
2016,08,19,04,22,21.40
2016,08,19,04,23,21.30
2016,08,19,04,24,21.30
2016,08,19,04,25,21.30
2016,08,19,04,26,21.30
2016,08,19,04,27,21.30
2016,08,19,04,28,21.30
2016,08,19,04,29,21.30
2016,08,19,04,30,21.30
2016,08,19,04,31,21.30
2016,08,19,04,32,21.30
2016,08,19,04,33,21.30
2016,08,19,04,34,21.20
2016,08,19,04,35,21.20
2016,08,19,04,36,21.20
2016,08,19,04,37,21.20
2016,08,19,04,38,21.20
2016,08,19,04,39,21.10
2016,08,19,04,40,21.10
2016,08,19,04,41,21.10
2016,08,19,04,42,21.00
2016,08,19,04,43,21.00
2016,08,19,04,44,21.00
2016,08,19,04,45,20.90
2016,08,19,04,46,20.90
2016,08,19,04,47,20.90
2016,08,19,04,48,20.90
2016,08,19,04,49,20.80
2016,08,19,04,50,20.80
2016,08,19,04,51,20.80
2016,08,19,04,52,20.80
2016,08,19,04,53,20.70
2016,08,19,04,54,20.70
2016,08,19,04,55,20.70
2016,08,19,04,56,20.70
2016,08,19,04,57,20.70
2016,08,19,04,58,20.60
2016,08,19,04,59,20.60
2016,08,19,05,00,20.60
2016,08,19,05,01,20.50
2016,08,19,05,02,20.50
2016,08,19,05,03,20.50
2016,08,19,05,04,20.40
2016,08,19,05,05,20.40
2016,08,19,05,06,20.30
2016,08,19,05,07,20.30
2016,08,19,05,08,20.30
2016,08,19,05,09,20.30
2016,08,19,05,10,20.20
2016,08,19,05,11,20.20
2016,08,19,05,12,20.20
2016,08,19,05,13,20.10
2016,08,19,05,14,20.10
2016,08,19,05,15,20.10
2016,08,19,05,16,20.00
2016,08,19,05,17,20.00
2016,08,19,05,18,19.90
2016,08,19,05,19,19.90
2016,08,19,05,20,19.90
2016,08,19,05,21,19.90
2016,08,19,05,22,19.80
2016,08,19,05,23,19.80
2016,08,19,05,24,19.80
2016,08,19,05,25,19.80
2016,08,19,05,26,19.80
2016,08,19,05,27,19.70
2016,08,19,05,28,19.70
2016,08,19,05,29,19.70
2016,08,19,05,30,19.70
2016,08,19,05,31,19.70
2016,08,19,05,32,19.70
2016,08,19,05,33,19.70
2016,08,19,05,34,19.70
2016,08,19,05,35,19.70
2016,08,19,05,36,19.70
2016,08,19,05,37,19.70
2016,08,19,05,38,19.70
2016,08,19,05,39,19.80
2016,08,19,05,40,19.80
2016,08,19,05,41,19.80
2016,08,19,05,42,19.80
2016,08,19,05,43,19.80
2016,08,19,05,44,19.80
2016,08,19,05,45,19.80
2016,08,19,05,46,19.80
2016,08,19,05,47,19.80
2016,08,19,05,48,19.80
2016,08,19,05,49,19.80
2016,08,19,05,50,19.80
2016,08,19,05,51,19.80
2016,08,19,05,52,19.80
2016,08,19,05,53,19.80
2016,08,19,05,54,19.80
2016,08,19,05,55,19.80
2016,08,19,05,56,19.80
2016,08,19,05,57,19.80
2016,08,19,05,58,19.80
2016,08,19,05,59,19.80
2016,08,19,06,00,19.80
2016,08,19,06,01,19.80
2016,08,19,06,02,19.80
2016,08,19,06,03,19.80
2016,08,19,06,04,19.80
2016,08,19,06,05,19.80
2016,08,19,06,06,19.90
2016,08,19,06,07,19.90
2016,08,19,06,08,19.90
2016,08,19,06,09,20.00
2016,08,19,06,10,20.00
2016,08,19,06,11,20.00
2016,08,19,06,12,20.00
2016,08,19,06,13,20.10
2016,08,19,06,14,20.10
2016,08,19,06,15,20.10
2016,08,19,06,16,20.10
2016,08,19,06,17,20.10
2016,08,19,06,18,20.20
2016,08,19,06,19,20.20
2016,08,19,06,20,20.20
2016,08,19,06,21,20.20
2016,08,19,06,22,20.20
2016,08,19,06,23,20.30
2016,08,19,06,24,20.30
2016,08,19,06,25,20.30
2016,08,19,06,26,20.30
2016,08,19,06,27,20.30
2016,08,19,06,28,20.30
2016,08,19,06,29,20.30
2016,08,19,06,30,20.30
2016,08,19,06,31,20.30
2016,08,19,06,32,20.30
2016,08,19,06,33,20.30
2016,08,19,06,34,20.30
2016,08,19,06,35,20.30
2016,08,19,06,36,20.30
2016,08,19,06,37,20.30
2016,08,19,06,38,20.30
2016,08,19,06,39,20.40
2016,08,19,06,40,20.40
2016,08,19,06,41,20.40
2016,08,19,06,42,20.40
2016,08,19,06,43,20.40
2016,08,19,06,44,20.50
2016,08,19,06,45,20.50
2016,08,19,06,46,20.50
2016,08,19,06,47,20.60
2016,08,19,06,48,20.60
2016,08,19,06,49,20.60
2016,08,19,06,50,20.70
2016,08,19,06,51,20.70
2016,08,19,06,52,20.70
2016,08,19,06,53,20.70
2016,08,19,06,54,20.70
2016,08,19,06,55,20.70
2016,08,19,06,56,20.70
2016,08,19,06,57,20.70
2016,08,19,06,58,20.70
2016,08,19,06,59,20.60
2016,08,19,07,00,20.60
2016,08,19,07,01,20.60
2016,08,19,07,02,20.60
2016,08,19,07,03,20.60
2016,08,19,07,04,20.60
2016,08,19,07,05,20.60
2016,08,19,07,06,20.60
2016,08,19,07,07,20.60
2016,08,19,07,08,20.60
2016,08,19,07,09,20.60
2016,08,19,07,10,20.60
2016,08,19,07,11,20.60
2016,08,19,07,12,20.50
2016,08,19,07,13,20.50
2016,08,19,07,14,20.40
2016,08,19,07,15,20.40
2016,08,19,07,16,20.40
2016,08,19,07,17,20.30
2016,08,19,07,18,20.30
2016,08,19,07,19,20.30
2016,08,19,07,20,20.30
2016,08,19,07,21,20.30
2016,08,19,07,22,20.30
2016,08,19,07,23,20.30
2016,08,19,07,24,20.30
2016,08,19,07,25,20.30
2016,08,19,07,26,20.30
2016,08,19,07,27,20.40
2016,08,19,07,28,20.40
2016,08,19,07,29,20.40
2016,08,19,07,30,20.50
2016,08,19,07,31,20.60
2016,08,19,07,32,20.60
2016,08,19,07,33,20.60
2016,08,19,07,34,20.70
2016,08,19,07,35,20.70
2016,08,19,07,36,20.70
2016,08,19,07,37,20.80
2016,08,19,07,38,20.80
2016,08,19,07,39,20.80
2016,08,19,07,40,20.90
2016,08,19,07,41,20.90
2016,08,19,07,42,21.00
2016,08,19,07,43,21.10
2016,08,19,07,44,21.20
2016,08,19,07,45,21.30
2016,08,19,07,46,21.40
2016,08,19,07,47,21.50
2016,08,19,07,48,21.60
2016,08,19,07,49,21.70
2016,08,19,07,50,21.70
2016,08,19,07,51,21.80
2016,08,19,07,52,21.90
2016,08,19,07,53,21.90
2016,08,19,07,54,22.00
2016,08,19,07,55,22.10
2016,08,19,07,56,22.20
2016,08,19,07,57,22.20
2016,08,19,07,58,22.30
2016,08,19,07,59,22.30
2016,08,19,08,00,22.40
2016,08,19,08,01,22.40
2016,08,19,08,02,22.50
2016,08,19,08,03,22.60
2016,08,19,08,04,22.60
2016,08,19,08,05,22.70
2016,08,19,08,06,22.70
2016,08,19,08,07,22.70
2016,08,19,08,08,22.80
2016,08,19,08,09,22.80
2016,08,19,08,10,22.80
2016,08,19,08,11,22.80
2016,08,19,08,12,22.90
2016,08,19,08,13,22.90
2016,08,19,08,14,23.00
2016,08,19,08,15,23.00
2016,08,19,08,16,23.10
2016,08,19,08,17,23.10
2016,08,19,08,18,23.20
2016,08,19,08,19,23.20
2016,08,19,08,20,23.30
2016,08,19,08,21,23.30
2016,08,19,08,22,23.40
2016,08,19,08,23,23.40
2016,08,19,08,24,23.50
2016,08,19,08,25,23.50
2016,08,19,08,26,23.60
2016,08,19,08,27,23.60
2016,08,19,08,28,23.70
2016,08,19,08,29,23.70
2016,08,19,08,30,23.80
2016,08,19,08,31,23.80
2016,08,19,08,32,23.80
2016,08,19,08,33,23.90
2016,08,19,08,34,23.90
2016,08,19,08,35,23.90
2016,08,19,08,36,23.90
2016,08,19,08,37,24.00
2016,08,19,08,38,24.00
2016,08,19,08,39,24.00
2016,08,19,08,40,24.00
2016,08,19,08,41,24.00
2016,08,19,08,42,24.00
2016,08,19,08,43,24.00
2016,08,19,08,44,24.10
2016,08,19,08,45,24.10
2016,08,19,08,46,24.10
2016,08,19,08,47,24.10
2016,08,19,08,48,24.10
2016,08,19,08,49,24.10
2016,08,19,08,50,24.10
2016,08,19,08,51,24.10
2016,08,19,08,52,24.10
2016,08,19,08,53,24.20
2016,08,19,08,54,24.20
2016,08,19,08,55,24.20
2016,08,19,08,56,24.20
2016,08,19,08,57,24.30
2016,08,19,08,58,24.30
2016,08,19,08,59,24.30
2016,08,19,09,00,24.40
2016,08,19,09,01,24.40
2016,08,19,09,02,24.50
2016,08,19,09,03,24.50
2016,08,19,09,04,24.50
2016,08,19,09,05,24.60
2016,08,19,09,06,24.60
2016,08,19,09,07,24.70
2016,08,19,09,08,24.70
2016,08,19,09,09,24.70
2016,08,19,09,10,24.80
2016,08,19,09,11,24.80
2016,08,19,09,12,24.80
2016,08,19,09,13,24.90
2016,08,19,09,14,24.90
2016,08,19,09,15,24.90
2016,08,19,09,16,24.90
2016,08,19,09,17,24.90
2016,08,19,09,18,24.90
2016,08,19,09,19,24.90
2016,08,19,09,20,24.90
2016,08,19,09,21,25.00
2016,08,19,09,22,25.00
2016,08,19,09,23,25.00
2016,08,19,09,24,25.00
2016,08,19,09,25,25.10
2016,08,19,09,26,25.10
2016,08,19,09,27,25.10
2016,08,19,09,28,25.10
2016,08,19,09,29,25.20
2016,08,19,09,30,25.20
2016,08,19,09,31,25.20
2016,08,19,09,32,25.30
2016,08,19,09,33,25.30
2016,08,19,09,34,25.40
2016,08,19,09,35,25.40
2016,08,19,09,36,25.40
2016,08,19,09,37,25.40
2016,08,19,09,38,25.40
2016,08,19,09,39,25.50
2016,08,19,09,40,25.50
2016,08,19,09,41,25.50
2016,08,19,09,42,25.50
2016,08,19,09,43,25.50
2016,08,19,09,44,25.60
2016,08,19,09,45,25.60
2016,08,19,09,46,25.60
2016,08,19,09,47,25.60
2016,08,19,09,48,25.60
2016,08,19,09,49,25.60
2016,08,19,09,50,25.60
2016,08,19,09,51,25.70
2016,08,19,09,52,25.70
2016,08,19,09,53,25.70
2016,08,19,09,54,25.70
2016,08,19,09,55,25.70
2016,08,19,09,56,25.70
2016,08,19,09,57,25.80
2016,08,19,09,58,25.80
2016,08,19,09,59,25.80
2016,08,19,10,00,25.90
2016,08,19,10,01,25.90
2016,08,19,10,02,25.90
2016,08,19,10,03,26.00
2016,08,19,10,04,26.00
2016,08,19,10,05,26.10
2016,08,19,10,06,26.10
2016,08,19,10,07,26.10
2016,08,19,10,08,26.10
2016,08,19,10,09,26.10
2016,08,19,10,10,26.10
2016,08,19,10,11,26.10
2016,08,19,10,12,26.10
2016,08,19,10,13,26.10
2016,08,19,10,14,26.10
2016,08,19,10,15,26.10
2016,08,19,10,16,26.10
2016,08,19,10,17,26.20
2016,08,19,10,18,26.20
2016,08,19,10,19,26.20
2016,08,19,10,20,26.30
2016,08,19,10,21,26.30
2016,08,19,10,22,26.30
2016,08,19,10,23,26.30
2016,08,19,10,24,26.30
2016,08,19,10,25,26.30
2016,08,19,10,26,26.30
2016,08,19,10,27,26.40
2016,08,19,10,28,26.40
2016,08,19,10,29,26.40
2016,08,19,10,30,26.50
2016,08,19,10,31,26.60
2016,08,19,10,32,26.60
2016,08,19,10,33,26.70
2016,08,19,10,34,26.70
2016,08,19,10,35,26.80
2016,08,19,10,36,26.90
2016,08,19,10,37,26.90
2016,08,19,10,38,26.90
2016,08,19,10,39,26.90
2016,08,19,10,40,26.90
2016,08,19,10,41,26.90
2016,08,19,10,42,26.90
2016,08,19,10,43,26.90
2016,08,19,10,44,26.90
2016,08,19,10,45,26.90
2016,08,19,10,46,26.90
2016,08,19,10,47,26.90
2016,08,19,10,48,26.90
2016,08,19,10,49,26.90
2016,08,19,10,50,26.90
2016,08,19,10,51,27.00
2016,08,19,10,52,27.00
2016,08,19,10,53,27.00
2016,08,19,10,54,27.00
2016,08,19,10,55,26.90
2016,08,19,10,56,26.90
2016,08,19,10,57,26.90
2016,08,19,10,58,26.90
2016,08,19,10,59,27.00
2016,08,19,11,00,27.00
2016,08,19,11,01,27.10
2016,08,19,11,02,27.20
2016,08,19,11,03,27.20
2016,08,19,11,04,27.30
2016,08,19,11,05,27.30
2016,08,19,11,06,27.30
2016,08,19,11,07,27.30
2016,08,19,11,08,27.30
2016,08,19,11,09,27.40
2016,08,19,11,10,27.40
2016,08,19,11,11,27.50
2016,08,19,11,12,27.60
2016,08,19,11,13,27.60
2016,08,19,11,14,27.60
2016,08,19,11,15,27.60
2016,08,19,11,16,27.60
2016,08,19,11,17,27.60
2016,08,19,11,18,27.60
2016,08,19,11,19,27.60
2016,08,19,11,20,27.60
2016,08,19,11,21,27.60
2016,08,19,11,22,27.60
2016,08,19,11,23,27.50
2016,08,19,11,24,27.50
2016,08,19,11,25,27.50
2016,08,19,11,26,27.60
2016,08,19,11,27,27.70
2016,08,19,11,28,27.80
2016,08,19,11,29,27.90
2016,08,19,11,30,27.90
2016,08,19,11,31,28.00
2016,08,19,11,32,28.00
2016,08,19,11,33,28.00
2016,08,19,11,34,28.00
2016,08,19,11,35,28.00
2016,08,19,11,36,28.00
2016,08,19,11,37,28.10
2016,08,19,11,38,28.10
2016,08,19,11,39,28.20
2016,08,19,11,40,28.30
2016,08,19,11,41,28.40
2016,08,19,11,42,28.40
2016,08,19,11,43,28.50
2016,08,19,11,44,28.50
2016,08,19,11,45,28.50
2016,08,19,11,46,28.60
2016,08,19,11,47,28.60
2016,08,19,11,48,28.60
2016,08,19,11,49,28.60
2016,08,19,11,50,28.50
2016,08,19,11,51,28.60
2016,08,19,11,52,28.60
2016,08,19,11,53,28.60
2016,08,19,11,54,28.60
2016,08,19,11,55,28.70
2016,08,19,11,56,28.60
2016,08,19,11,57,28.60
2016,08,19,11,58,28.60
2016,08,19,11,59,28.60
2016,08,19,12,00,28.60
2016,08,19,12,01,28.50
2016,08,19,12,02,28.50
2016,08,19,12,03,28.50
2016,08,19,12,04,28.40
2016,08,19,12,05,28.40
2016,08,19,12,06,28.40
2016,08,19,12,07,28.40
2016,08,19,12,08,28.40
2016,08,19,12,09,28.40
2016,08,19,12,10,28.50
2016,08,19,12,11,28.60
2016,08,19,12,12,28.70
2016,08,19,12,13,28.80
2016,08,19,12,14,28.90
2016,08,19,12,15,29.00
2016,08,19,12,16,29.00
2016,08,19,12,17,29.10
2016,08,19,12,18,29.10
2016,08,19,12,19,29.20
2016,08,19,12,20,29.30
2016,08,19,12,21,29.40
2016,08,19,12,22,29.40
2016,08,19,12,23,29.40
2016,08,19,12,24,29.40
2016,08,19,12,25,29.40
2016,08,19,12,26,29.30
2016,08,19,12,27,29.20
2016,08,19,12,28,29.20
2016,08,19,12,29,29.10
2016,08,19,12,30,29.10
2016,08,19,12,31,29.10
2016,08,19,12,32,29.10
2016,08,19,12,33,29.10
2016,08,19,12,34,29.10
2016,08,19,12,35,29.10
2016,08,19,12,36,29.10
2016,08,19,12,37,29.10
2016,08,19,12,38,29.10
2016,08,19,12,39,29.10
2016,08,19,12,40,29.20
2016,08,19,12,41,29.20
2016,08,19,12,42,29.20
2016,08,19,12,43,29.20
2016,08,19,12,44,29.20
2016,08,19,12,45,29.20
2016,08,19,12,46,29.20
2016,08,19,12,47,29.30
2016,08,19,12,48,29.30
2016,08,19,12,49,29.40
2016,08,19,12,50,29.40
2016,08,19,12,51,29.40
2016,08,19,12,52,29.50
2016,08,19,12,53,29.50
2016,08,19,12,54,29.60
2016,08,19,12,55,29.60
2016,08,19,12,56,29.60
2016,08,19,12,57,29.60
2016,08,19,12,58,29.50
2016,08,19,12,59,29.50
2016,08,19,13,00,29.40
2016,08,19,13,01,29.50
2016,08,19,13,02,29.50
2016,08,19,13,03,29.60
2016,08,19,13,04,29.60
2016,08,19,13,05,29.70
2016,08,19,13,06,29.80
2016,08,19,13,07,29.90
2016,08,19,13,08,29.90
2016,08,19,13,09,30.00
2016,08,19,13,10,29.90
2016,08,19,13,11,29.90
2016,08,19,13,12,29.90
2016,08,19,13,13,29.90
2016,08,19,13,14,29.90
2016,08,19,13,15,29.90
2016,08,19,13,16,30.00
2016,08,19,13,17,30.10
2016,08,19,13,18,30.10
2016,08,19,13,19,30.20
2016,08,19,13,20,30.20
2016,08,19,13,21,30.30
2016,08,19,13,22,30.30
2016,08,19,13,23,30.30
2016,08,19,13,24,30.30
2016,08,19,13,25,30.40
2016,08,19,13,26,30.40
2016,08,19,13,27,30.40
2016,08,19,13,28,30.50
2016,08,19,13,29,30.50
2016,08,19,13,30,30.40
2016,08,19,13,31,30.40
2016,08,19,13,32,30.40
2016,08,19,13,33,30.40
2016,08,19,13,34,30.40
2016,08,19,13,35,30.40
2016,08,19,13,36,30.40
2016,08,19,13,37,30.40
2016,08,19,13,38,30.40
2016,08,19,13,39,30.40
2016,08,19,13,40,30.40
2016,08,19,13,41,30.40
2016,08,19,13,42,30.40
2016,08,19,13,43,30.30
2016,08,19,13,44,30.30
2016,08,19,13,45,30.30
2016,08,19,13,46,30.30
2016,08,19,13,47,30.40
2016,08,19,13,48,30.40
2016,08,19,13,49,30.50
2016,08,19,13,50,30.60
2016,08,19,13,51,30.60
2016,08,19,13,52,30.60
2016,08,19,13,53,30.60
2016,08,19,13,54,30.60
2016,08,19,13,55,30.70
2016,08,19,13,56,30.70
2016,08,19,13,57,30.80
2016,08,19,13,58,30.80
2016,08,19,13,59,30.80
2016,08,19,14,00,30.80
2016,08,19,14,01,30.80
2016,08,19,14,02,30.80
2016,08,19,14,03,30.80
2016,08,19,14,04,30.90
2016,08,19,14,05,30.90
2016,08,19,14,06,30.90
2016,08,19,14,07,30.90
2016,08,19,14,08,31.00
2016,08,19,14,09,31.10
2016,08,19,14,10,31.10
2016,08,19,14,11,31.10
2016,08,19,14,12,31.10
2016,08,19,14,13,31.10
2016,08,19,14,14,31.10
2016,08,19,14,15,31.10
2016,08,19,14,16,31.10
2016,08,19,14,17,31.20
2016,08,19,14,18,31.20
2016,08,19,14,19,31.20
2016,08,19,14,20,31.30
2016,08,19,14,21,31.30
2016,08,19,14,22,31.40
2016,08,19,14,23,31.50
2016,08,19,14,24,31.60
2016,08,19,14,25,31.70
2016,08,19,14,26,31.70
2016,08,19,14,27,31.70
2016,08,19,14,28,31.70
2016,08,19,14,29,31.70
2016,08,19,14,30,31.70
2016,08,19,14,31,31.70
2016,08,19,14,32,31.70
2016,08,19,14,33,31.70
2016,08,19,14,34,31.70
2016,08,19,14,35,31.80
2016,08,19,14,36,31.90
2016,08,19,14,37,32.00
2016,08,19,14,38,32.00
2016,08,19,14,39,32.10
2016,08,19,14,40,32.20
2016,08,19,14,41,32.20
2016,08,19,14,42,32.20
2016,08,19,14,43,32.20
2016,08,19,14,44,32.20
2016,08,19,14,45,32.30
2016,08,19,14,46,32.30
2016,08,19,14,47,32.20
2016,08,19,14,48,32.20
2016,08,19,14,49,32.20
2016,08,19,14,50,32.20
2016,08,19,14,51,32.20
2016,08,19,14,52,32.20
2016,08,19,14,53,32.20
2016,08,19,14,54,32.20
2016,08,19,14,55,32.20
2016,08,19,14,56,32.30
2016,08,19,14,57,32.30
2016,08,19,14,58,32.30
2016,08,19,14,59,32.40
2016,08,19,15,00,32.40
2016,08,19,15,01,32.40
2016,08,19,15,02,32.40
2016,08,19,15,03,32.40
2016,08,19,15,04,32.30
2016,08,19,15,05,32.30
2016,08,19,15,06,32.30
2016,08,19,15,07,32.30
2016,08,19,15,08,32.30
2016,08,19,15,09,32.40
2016,08,19,15,10,32.40
2016,08,19,15,11,32.50
2016,08,19,15,12,32.60
2016,08,19,15,13,32.60
2016,08,19,15,14,32.70
2016,08,19,15,15,32.70
2016,08,19,15,16,32.80
2016,08,19,15,17,32.80
2016,08,19,15,18,32.90
2016,08,19,15,19,32.90
2016,08,19,15,20,33.00
2016,08,19,15,21,33.00
2016,08,19,15,22,33.00
2016,08,19,15,23,33.00
2016,08,19,15,24,33.00
2016,08,19,15,25,33.00
2016,08,19,15,26,33.00
2016,08,19,15,27,33.00
2016,08,19,15,28,33.00
2016,08,19,15,29,33.10
2016,08,19,15,30,33.20
2016,08,19,15,31,33.10
2016,08,19,15,32,33.10
2016,08,19,15,33,33.10
2016,08,19,15,34,33.10
2016,08,19,15,35,33.00
2016,08,19,15,36,33.00
2016,08,19,15,37,32.90
2016,08,19,15,38,32.80
2016,08,19,15,39,32.80
2016,08,19,15,40,32.70
2016,08,19,15,41,32.60
2016,08,19,15,42,32.60
2016,08,19,15,43,32.50
2016,08,19,15,44,32.50
2016,08,19,15,45,32.40
2016,08,19,15,46,32.40
2016,08,19,15,47,32.30
2016,08,19,15,48,32.20
2016,08,19,15,49,32.20
2016,08,19,15,50,32.20
2016,08,19,15,51,32.20
2016,08,19,15,52,32.20
2016,08,19,15,53,32.20
2016,08,19,15,54,32.10
2016,08,19,15,55,32.10
2016,08,19,15,56,32.20
2016,08,19,15,57,32.20
2016,08,19,15,58,32.20
2016,08,19,15,59,32.30
2016,08,19,16,00,32.30
2016,08,19,16,01,32.30
2016,08,19,16,02,32.40
2016,08,19,16,03,32.40
2016,08,19,16,04,32.40
2016,08,19,16,05,32.40
2016,08,19,16,06,32.30
2016,08,19,16,07,32.30
2016,08,19,16,08,32.30
2016,08,19,16,09,32.20
2016,08,19,16,10,32.20
2016,08,19,16,11,32.20
2016,08,19,16,12,32.20
2016,08,19,16,13,32.20
2016,08,19,16,14,32.20
2016,08,19,16,15,32.30
2016,08,19,16,16,32.40
2016,08,19,16,17,32.40
2016,08,19,16,18,32.40
2016,08,19,16,19,32.40
2016,08,19,16,20,32.40
2016,08,19,16,21,32.50
2016,08,19,16,22,32.50
2016,08,19,16,23,32.50
2016,08,19,16,24,32.60
2016,08,19,16,25,32.60
2016,08,19,16,26,32.60
2016,08,19,16,27,32.60
2016,08,19,16,28,32.60
2016,08,19,16,29,32.70
2016,08,19,16,30,32.70
2016,08,19,16,31,32.80
2016,08,19,16,32,32.80
2016,08,19,16,33,32.90
2016,08,19,16,34,33.00
2016,08,19,16,35,33.00
2016,08,19,16,36,33.00
2016,08,19,16,37,33.00
2016,08,19,16,38,33.10
2016,08,19,16,39,33.10
2016,08,19,16,40,33.00
2016,08,19,16,41,32.90
2016,08,19,16,42,32.90
2016,08,19,16,43,32.70
2016,08,19,16,44,32.40
2016,08,19,16,45,32.20
2016,08,19,16,46,32.00
2016,08,19,16,47,31.90
2016,08,19,16,48,31.80
2016,08,19,16,49,31.60
2016,08,19,16,50,31.50
2016,08,19,16,51,31.30
2016,08,19,16,52,31.30
2016,08,19,16,53,31.30
2016,08,19,16,54,31.30
2016,08,19,16,55,31.40
2016,08,19,16,56,31.40
2016,08,19,16,57,31.40
2016,08,19,16,58,31.50
2016,08,19,16,59,31.50
2016,08,19,17,00,31.40
2016,08,19,17,01,31.30
2016,08,19,17,02,31.10
2016,08,19,17,03,30.90
2016,08,19,17,04,30.70
2016,08,19,17,05,30.60
2016,08,19,17,06,30.60
2016,08,19,17,07,30.50
2016,08,19,17,08,30.40
2016,08,19,17,09,30.30
2016,08,19,17,10,30.30
2016,08,19,17,11,30.30
2016,08,19,17,12,30.30
2016,08,19,17,13,30.30
2016,08,19,17,14,30.30
2016,08,19,17,15,30.30
2016,08,19,17,16,30.40
2016,08,19,17,17,30.50
2016,08,19,17,18,30.60
2016,08,19,17,19,30.60